Content
SEND FEEDBACK

Daily
Averages
Monthly
Summary
Canada

PELEE ISLAND, ONTARIO


Home > North America > Canada > Ontario
Elevation: 571 feet     Latitude: 41 46N     Longitude: 082 40W

WEATHER
 
SELECT A DAY
Number of Records: 122,784;   Date Range: 12/10/00 - 8/20/14
 
SHARE

PRINT THIS DATA

[ ← Previous Day ]
WEATHER ALMANAC - JUNE 19, 2013
[ Next Day → ]
[ °C ]   °F
Weather ElementAverageHighLow
Temperature61.1 °F69.1 °F (3:00 pm)51.8 °F (5:00 am)
Dewpoint49.1 °F55 °F (3:00 pm)44.2 °F (1:00 am)
Humidity64.4 %83 % (4:00 am)41 % (8:00 pm)
Barometer29.00 in30.16 in (11:00 pm) (7:00 pm)
Wind Speed5.1 mph9.2 mph (1:00 pm)
Weather ElementAverage
Wind DirectionENE (83.7 °)

Weather ElementTotal
Precipitation0.01 in
Heating Degree Days4.6 (Base 65)
Growing Degree Days10.5 (Base 50)
Averaged from 27 records on June 19, 2013
WEATHER CONDITIONS BREAKOUT
WIND DIRECTION BREAKOUT
WEATHER BY HOUR - JUNE 19, 2013
[ °C ]   °F
Local TimeTemperatureDewpointHumidityBarometerVisibilityWind DirectionWind SpeedGust SpeedPrecipitationEventsConditions
1:00 AM54.0 °F44.2 °F70 %30.04 inNNE (20°)4.6 mph
2:00 AM53.0 °F46.0 °F69 %30.05 inNNE (20°)3.5 mph
2:00 AM52.5 °F45.7 °F78 %30.05 inNorth (10°)3.5 mph0.01 in
3:00 AM52.7 °F46.4 °F79 %30.06 inNorth (10°)2.3 mph
4:00 AM52.2 °F47.1 °F83 %30.07 inNNE (20°)3.5 mph
5:00 AM51.8 °F46.2 °F81 %30.08 inNNE (30°)3.5 mph
6:00 AM51.8 °F44.8 °F77 %30.09 inNE (40°)4.6 mph
7:00 AM53.8 °F46.6 °F77 %30.11 inNE (40°)3.5 mph
8:00 AM58.0 °F48.0 °F59 %30.14 inNE (40°)5.8 mph
8:00 AM57.9 °F47.7 °F69 %NE (50°)5.8 mph
9:00 AM61.2 °F48.4 °F63 %30.14 inNE (50°)5.8 mph
10:00 AM63.7 °F48.2 °F57 %30.15 inEast (80°)4.6 mph
11:00 AM66.2 °F51.8 °F60 %30.14 inENE (70°)3.5 mph
12:00 PM66.9 °F49.6 °F54 %30.14 inNorth (10°)3.5 mph
1:00 PM67.1 °F53.8 °F62 %30.15 inSSE (150°)9.2 mph
2:00 PM68.0 °F54.0 °F52 %30.14 inSSE (150°)9.2 mph
2:00 PM68.4 °F54.5 °F61 %30.14 inSSE (150°)9.2 mph
3:00 PM69.1 °F55.0 °F61 %30.14 inSSE (160°)9.2 mph
4:00 PM67.6 °F51.3 °F56 %30.13 inSE (140°)8.1 mph
5:00 PM68.4 °F50.4 °F53 %30.13 inSE (140°)6.9 mph
6:00 PM68.0 °F48.4 °F49 %30.12 inSSE (150°)8.1 mph
7:00 PM67.6 °F48.9 °F51 %30.12 inSSE (150°)6.9 mph
8:00 PM66.0 °F48.0 °F41 %30.12 inSE (140°)3.5 mph
8:00 PM66.0 °F48.0 °F52 %30.12 inSE (140°)3.5 mph
9:00 PM62.1 °F50.2 °F65 %30.12 inSE (140°)2.3 mph
10:00 PM58.6 °F51.4 °F77 %30.14 inSSE (160°)2.3 mph
11:00 PM55.8 °F50.5 °F83 %30.16 inCalm
Hourly data recorded from CXHA, located miles away from Pelee Island, Ontario







STORIES FROM OUR PARTNERS